CCA925 KSAN-KIAH

Flight info

Callsign CCA925
Flight time N/A
Altitude 35000
Route ZZOOO4 GBN J50 SSO ELP Q4 PEQ DIESL TTORO3
Aircraft B738/M-SDE2E3FGHIRWXY/LB1

Departure

Time 2026-04-24 12:15
Airport San Diego International Airport (KSAN)

Arrival

Time N/A
Airport George Bush Intercontinental Airport (KIAH)
Time Latitude Longitude Altitude Speed Heading
2026-04-24 12:01 32.73321 -117.19993 24 ft 0 kts 15°
2026-04-24 12:06 32.73325 -117.19992 23 ft 2 kts 15°
2026-04-24 12:06 32.73328 -117.19991 23 ft 0 kts 15°
2026-04-24 12:09 32.73329 -117.19991 22 ft 0 kts 15°
2026-04-24 12:09 32.73341 -117.19987 22 ft 4 kts 15°
2026-04-24 12:09 32.73385 -117.19972 23 ft 9 kts 12°
2026-04-24 12:10 32.73437 -117.19960 22 ft 9 kts 12°
2026-04-24 12:10 32.73480 -117.19914 22 ft 9 kts 91°
2026-04-24 12:10 32.73463 -117.19834 22 ft 11 kts 107°
2026-04-24 12:11 32.73405 -117.19599 22 ft 18 kts 107°
2026-04-24 12:11 32.73369 -117.19450 23 ft 20 kts 106°
2026-04-24 12:11 32.73327 -117.19276 23 ft 24 kts 106°
2026-04-24 12:11 32.73280 -117.19082 22 ft 23 kts 105°
2026-04-24 12:12 32.73232 -117.18885 22 ft 26 kts 106°
2026-04-24 12:12 32.73180 -117.18671 23 ft 28 kts 106°
2026-04-24 12:12 32.73123 -117.18436 22 ft 30 kts 105°
2026-04-24 12:12 32.73067 -117.18200 23 ft 28 kts 104°
2026-04-24 12:13 32.73017 -117.17999 21 ft 25 kts 106°
2026-04-24 12:13 32.72968 -117.17804 21 ft 24 kts 108°
2026-04-24 12:13 32.72965 -117.17641 21 ft 19 kts 64°
2026-04-24 12:13 32.73031 -117.17605 21 ft 6 kts 326°
2026-04-24 12:14 32.73040 -117.17628 21 ft 0 kts 289°
2026-04-24 12:14 32.73043 -117.17639 21 ft 6 kts 289°
2026-04-24 12:14 32.73104 -117.17904 23 ft 73 kts 283°
2026-04-24 12:15 32.73310 -117.18782 21 ft 146 kts 286°
2026-04-24 12:15 32.73641 -117.20132 197 ft 191 kts 286°
2026-04-24 12:15 32.74021 -117.21665 1191 ft 186 kts 285°
2026-04-24 12:15 32.74369 -117.23114 2212 ft 192 kts 285°
2026-04-24 12:16 32.74773 -117.24786 2442 ft 223 kts 285°
2026-04-24 12:16 32.75212 -117.26616 2806 ft 239 kts 285°
2026-04-24 12:16 32.75668 -117.28542 3489 ft 246 kts 285°
2026-04-24 12:16 32.76139 -117.30536 4178 ft 253 kts 285°
2026-04-24 12:17 32.76587 -117.32528 5167 ft 247 kts 278°
2026-04-24 12:17 32.76380 -117.34545 5850 ft 253 kts 244°
2026-04-24 12:17 32.75211 -117.36041 6778 ft 248 kts 211°
2026-04-24 12:17 32.73553 -117.36765 7323 ft 264 kts 189°
2026-04-24 12:18 32.71730 -117.36589 8069 ft 268 kts 163°
2026-04-24 12:18 32.70125 -117.35445 8738 ft 275 kts 136°
2026-04-24 12:18 32.68887 -117.33702 9562 ft 276 kts 128°
2026-04-24 12:18 32.67749 -117.31846 10230 ft 281 kts 127°
2026-04-24 12:19 32.66596 -117.29977 10850 ft 285 kts 129°
2026-04-24 12:19 32.65391 -117.28072 11497 ft 288 kts 129°
2026-04-24 12:19 32.64166 -117.26163 12148 ft 292 kts 130°
2026-04-24 12:19 32.63114 -117.24092 12743 ft 301 kts 110°
2026-04-24 12:20 32.62729 -117.21563 12981 ft 323 kts 95°
2026-04-24 12:20 32.62586 -117.18806 13164 ft 345 kts 94°
2026-04-24 12:20 32.62418 -117.15898 13376 ft 363 kts 96°
2026-04-24 12:20 32.62146 -117.12882 13872 ft 372 kts 97°
2026-04-24 12:21 32.62030 -117.09804 14432 ft 377 kts 84°
2026-04-24 12:21 32.62748 -117.06811 15021 ft 380 kts 65°
2026-04-24 12:21 32.63885 -117.03965 15608 ft 384 kts 62°
2026-04-24 12:21 32.65015 -117.01072 16169 ft 389 kts 66°
2026-04-24 12:22 32.66013 -116.98065 16722 ft 394 kts 68°
2026-04-24 12:22 32.66729 -116.94916 17253 ft 400 kts 86°
2026-04-24 12:23 32.66714 -116.85109 18819 ft 412 kts 87°
2026-04-24 12:23 32.66902 -116.81704 19324 ft 416 kts 87°
2026-04-24 12:23 32.67058 -116.78260 19840 ft 419 kts 88°
2026-04-24 12:23 32.67153 -116.74795 20346 ft 422 kts 90°
2026-04-24 12:24 32.67155 -116.71293 20803 ft 426 kts 92°
2026-04-24 12:24 32.67083 -116.67758 21288 ft 430 kts 93°
2026-04-24 12:24 32.66990 -116.64201 21773 ft 433 kts 93°
2026-04-24 12:24 32.66901 -116.60612 22229 ft 437 kts 93°
2026-04-24 12:25 32.66825 -116.56991 22661 ft 440 kts 92°
2026-04-24 12:25 32.66758 -116.53346 23120 ft 444 kts 92°
2026-04-24 12:25 32.66698 -116.49666 23528 ft 448 kts 92°
2026-04-24 12:25 32.66639 -116.45956 23896 ft 452 kts 92°
2026-04-24 12:26 32.66582 -116.42225 24261 ft 455 kts 91°
2026-04-24 12:26 32.66660 -116.38444 24618 ft 459 kts 87°
2026-04-24 12:26 32.66920 -116.34677 24993 ft 462 kts 84°
2026-04-24 12:26 32.67346 -116.30892 25353 ft 465 kts 81°
2026-04-24 12:27 32.67830 -116.27084 25700 ft 468 kts 81°
2026-04-24 12:27 32.68286 -116.23246 26033 ft 471 kts 82°
2026-04-24 12:27 32.68688 -116.19379 26358 ft 474 kts 84°
2026-04-24 12:27 32.69050 -116.15474 26699 ft 477 kts 84°
2026-04-24 12:28 32.69390 -116.11548 27067 ft 479 kts 84°
2026-04-24 12:28 32.69730 -116.07610 27362 ft 483 kts 84°
2026-04-24 12:28 32.70079 -116.03622 27652 ft 486 kts 84°
2026-04-24 12:28 32.70439 -115.99622 27966 ft 489 kts 84°
2026-04-24 12:29 32.70811 -115.95605 28252 ft 492 kts 83°
2026-04-24 12:29 32.71188 -115.91563 28562 ft 494 kts 83°
2026-04-24 12:29 32.71568 -115.87494 28839 ft 497 kts 83°
2026-04-24 12:29 32.71947 -115.83405 29111 ft 500 kts 83°
2026-04-24 12:30 32.72325 -115.79293 29396 ft 503 kts 83°
2026-04-24 12:30 32.72702 -115.75154 29670 ft 505 kts 83°
2026-04-24 12:30 32.73075 -115.71050 29928 ft 507 kts 84°
2026-04-24 12:30 32.73452 -115.66877 30163 ft 510 kts 84°
2026-04-24 12:31 32.73830 -115.62677 30389 ft 512 kts 84°
2026-04-24 12:31 32.74206 -115.58481 30587 ft 514 kts 84°
2026-04-24 12:31 32.74586 -115.54237 30808 ft 517 kts 84°
2026-04-24 12:31 32.74958 -115.49987 31019 ft 519 kts 85°
2026-04-24 12:32 32.75245 -115.45718 31268 ft 519 kts 87°
2026-04-24 12:32 32.75429 -115.41434 31587 ft 518 kts 89°
2026-04-24 12:32 32.75508 -115.37139 31891 ft 518 kts 91°
2026-04-24 12:32 32.75517 -115.32870 32152 ft 518 kts 91°
2026-04-24 12:33 32.75517 -115.28588 32395 ft 519 kts 91°
2026-04-24 12:33 32.75544 -115.24294 32652 ft 520 kts 91°
2026-04-24 12:33 32.75602 -115.20004 32928 ft 520 kts 90°
2026-04-24 12:33 32.75685 -115.15713 33203 ft 520 kts 90°
2026-04-24 12:34 32.75782 -115.11418 33440 ft 520 kts 90°
2026-04-24 12:34 32.75883 -115.07126 33677 ft 521 kts 90°
2026-04-24 12:34 32.75983 -115.02823 33908 ft 521 kts 90°
2026-04-24 12:34 32.76076 -114.98585 34112 ft 521 kts 90°
2026-04-24 12:35 32.76167 -114.94278 34315 ft 522 kts 90°
2026-04-24 12:35 32.76253 -114.89981 34502 ft 522 kts 90°
2026-04-24 12:35 32.76334 -114.85873 34680 ft 523 kts 90°
2026-04-24 12:35 32.76406 -114.82146 34856 ft 523 kts 90°
2026-04-24 12:36 32.76490 -114.77743 34877 ft 526 kts 90°
2026-04-24 12:36 32.76653 -114.69055 34882 ft 524 kts 90°
2026-04-24 12:37 32.76810 -114.60429 34878 ft 521 kts 90°
2026-04-24 12:37 32.76941 -114.51837 34885 ft 519 kts 91°
2026-04-24 12:38 32.77053 -114.43271 34889 ft 518 kts 91°
2026-04-24 12:38 32.77162 -114.34707 34891 ft 518 kts 91°
2026-04-24 12:39 32.77369 -114.17528 34893 ft 522 kts 91°
2026-04-24 12:40 32.77451 -114.10265 34889 ft 524 kts 91°
2026-04-24 12:40 32.77530 -114.02728 34887 ft 526 kts 91°
2026-04-24 12:41 32.77677 -113.94857 34879 ft 528 kts 87°
2026-04-24 12:41 32.78469 -113.87682 34877 ft 529 kts 77°
2026-04-24 12:42 32.80112 -113.79158 34883 ft 530 kts 77°
2026-04-24 12:42 32.81424 -113.70916 34876 ft 531 kts 80°
2026-04-24 12:43 32.82247 -113.64761 34880 ft 531 kts 81°
2026-04-24 12:43 32.83522 -113.55490 34876 ft 531 kts 80°
2026-04-24 12:44 32.84535 -113.48300 34876 ft 530 kts 80°
2026-04-24 12:44 32.85709 -113.39957 34877 ft 530 kts 80°
2026-04-24 12:45 32.86837 -113.31864 34878 ft 529 kts 80°
2026-04-24 12:45 32.87849 -113.24544 34877 ft 529 kts 80°
2026-04-24 12:46 32.88962 -113.16458 34869 ft 528 kts 80°
2026-04-24 12:46 32.89850 -113.09976 34875 ft 527 kts 80°
2026-04-24 12:47 32.90993 -113.01599 34885 ft 527 kts 80°
2026-04-24 12:47 32.91965 -112.94445 34896 ft 526 kts 80°
2026-04-24 12:48 32.93127 -112.85853 34904 ft 526 kts 80°
2026-04-24 12:48 32.94283 -112.77255 34909 ft 526 kts 80°
2026-04-24 12:49 32.95429 -112.68643 34908 ft 527 kts 81°
2026-04-24 12:49 32.95599 -112.64299 34887 ft 526 kts 96°
2026-04-24 12:49 32.95207 -112.60210 34936 ft 523 kts 101°
2026-04-24 12:50 32.94251 -112.53202 34906 ft 525 kts 102°
2026-04-24 12:50 32.93403 -112.45496 34893 ft 528 kts 97°
2026-04-24 12:51 32.92785 -112.37030 34892 ft 529 kts 97°
2026-04-24 12:51 32.92092 -112.28307 34885 ft 530 kts 98°
2026-04-24 12:52 32.91301 -112.19640 34896 ft 531 kts 98°
2026-04-24 12:52 32.90478 -112.10915 34906 ft 531 kts 98°
2026-04-24 12:53 32.88778 -111.92780 34928 ft 532 kts 99°
2026-04-24 12:54 32.87530 -111.84142 34924 ft 529 kts 107°
2026-04-24 12:54 32.85482 -111.75788 34933 ft 525 kts 112°
2026-04-24 12:55 32.83358 -111.67471 34928 ft 527 kts 109°
2026-04-24 12:55 32.81516 -111.59030 34925 ft 527 kts 108°
2026-04-24 12:56 32.79651 -111.50611 34927 ft 527 kts 109°
2026-04-24 12:56 32.77751 -111.42212 34940 ft 526 kts 109°
2026-04-24 12:57 32.75853 -111.33870 34940 ft 526 kts 109°
2026-04-24 12:57 32.73945 -111.25490 34942 ft 526 kts 109°
2026-04-24 12:58 32.72032 -111.17107 34962 ft 526 kts 109°
2026-04-24 12:58 32.70111 -111.08716 34953 ft 527 kts 109°
2026-04-24 12:59 32.68183 -111.00319 34957 ft 527 kts 109°
2026-04-24 12:59 32.66247 -110.91923 34955 ft 528 kts 109°
2026-04-24 13:00 32.64304 -110.83518 34962 ft 528 kts 109°
2026-04-24 13:00 32.62362 -110.75146 34966 ft 528 kts 109°
2026-04-24 13:01 32.60404 -110.66730 34974 ft 527 kts 109°
2026-04-24 13:01 32.58450 -110.58359 34974 ft 527 kts 109°
2026-04-24 13:02 32.56494 -110.49993 34975 ft 526 kts 109°
2026-04-24 13:02 32.54536 -110.41624 34971 ft 527 kts 109°
2026-04-24 13:03 32.52569 -110.33246 34968 ft 528 kts 109°
2026-04-24 13:03 32.50596 -110.24868 34943 ft 529 kts 109°
2026-04-24 13:04 32.48615 -110.16483 34957 ft 528 kts 109°
2026-04-24 13:04 32.46630 -110.08109 34940 ft 529 kts 109°
2026-04-24 13:05 32.44637 -109.99729 34933 ft 529 kts 109°
2026-04-24 13:05 32.42639 -109.91355 34916 ft 529 kts 109°
2026-04-24 13:06 32.40634 -109.82982 34915 ft 530 kts 109°
2026-04-24 13:06 32.38619 -109.74591 34901 ft 530 kts 109°
2026-04-24 13:07 32.36596 -109.66194 34896 ft 531 kts 109°
2026-04-24 13:07 32.34568 -109.57800 34895 ft 531 kts 110°
2026-04-24 13:08 32.32533 -109.49406 34885 ft 531 kts 110°
2026-04-24 13:08 32.30507 -109.41075 34885 ft 531 kts 110°
2026-04-24 13:09 32.27440 -109.28508 34879 ft 531 kts 110°
2026-04-24 13:09 32.25698 -109.19999 34879 ft 534 kts 103°
2026-04-24 13:10 32.24552 -109.11315 34889 ft 535 kts 99°
2026-04-24 13:10 32.23510 -109.02601 34923 ft 536 kts 100°
2026-04-24 13:11 32.22356 -108.93902 34955 ft 536 kts 101°
2026-04-24 13:11 32.21125 -108.85266 34992 ft 535 kts 102°
2026-04-24 13:12 32.19996 -108.77493 35023 ft 535 kts 102°
2026-04-24 13:12 32.18738 -108.68819 35016 ft 535 kts 102°
2026-04-24 13:13 32.17485 -108.60162 35004 ft 535 kts 102°
2026-04-24 13:13 32.16230 -108.51521 34980 ft 534 kts 102°
2026-04-24 13:14 32.15181 -108.44332 34942 ft 534 kts 102°
2026-04-24 13:14 32.13915 -108.35707 34901 ft 534 kts 102°
2026-04-24 13:15 32.12644 -108.27087 34896 ft 534 kts 102°
2026-04-24 13:15 32.11365 -108.18455 34889 ft 534 kts 102°
2026-04-24 13:16 32.10083 -108.09840 34895 ft 533 kts 102°
2026-04-24 13:16 32.08793 -108.01216 34923 ft 533 kts 102°
2026-04-24 13:17 32.07558 -107.93000 34953 ft 533 kts 102°
2026-04-24 13:17 32.06319 -107.84795 34970 ft 534 kts 102°
2026-04-24 13:18 32.05018 -107.76220 34974 ft 534 kts 102°
2026-04-24 13:18 32.03703 -107.67592 34966 ft 535 kts 102°
2026-04-24 13:19 32.02381 -107.58955 34940 ft 536 kts 102°
2026-04-24 13:19 32.01085 -107.50531 34910 ft 536 kts 103°
2026-04-24 13:20 31.99867 -107.42644 34863 ft 537 kts 103°
2026-04-24 13:20 31.98514 -107.33931 34863 ft 537 kts 103°
2026-04-24 13:21 31.97163 -107.25267 34855 ft 538 kts 103°
2026-04-24 13:21 31.95806 -107.16606 34841 ft 539 kts 103°
2026-04-24 13:22 31.94439 -107.07918 34859 ft 539 kts 103°
2026-04-24 13:22 31.93076 -106.99302 34918 ft 539 kts 103°
2026-04-24 13:23 31.91699 -106.90626 34979 ft 539 kts 103°
2026-04-24 13:24 31.88784 -106.72402 35047 ft 539 kts 103°
2026-04-24 13:24 31.87387 -106.63730 35047 ft 539 kts 103°
2026-04-24 13:25 31.85996 -106.55129 35019 ft 539 kts 103°
2026-04-24 13:25 31.84577 -106.46404 35028 ft 540 kts 103°
2026-04-24 13:26 31.83170 -106.37776 35020 ft 540 kts 103°
2026-04-24 13:26 31.81750 -106.29112 35006 ft 540 kts 103°
2026-04-24 13:27 31.80533 -106.20399 34962 ft 540 kts 99°
2026-04-24 13:27 31.79560 -106.11642 34909 ft 540 kts 98°
2026-04-24 13:28 31.78596 -106.02903 34854 ft 539 kts 99°
2026-04-24 13:28 31.77575 -105.94160 34803 ft 539 kts 99°
2026-04-24 13:29 31.76522 -105.85443 34801 ft 539 kts 99°
2026-04-24 13:29 31.75461 -105.76729 34807 ft 538 kts 100°
2026-04-24 13:30 31.74401 -105.68043 34805 ft 537 kts 99°
2026-04-24 13:30 31.73339 -105.59367 34819 ft 536 kts 99°
2026-04-24 13:31 31.72271 -105.50687 34813 ft 536 kts 100°
2026-04-24 13:31 31.71198 -105.42023 34821 ft 536 kts 100°
2026-04-24 13:32 31.70120 -105.33366 34822 ft 536 kts 100°
2026-04-24 13:32 31.69036 -105.24708 34816 ft 536 kts 100°
2026-04-24 13:33 31.67944 -105.16036 34819 ft 537 kts 100°
2026-04-24 13:33 31.66845 -105.07364 34825 ft 537 kts 100°
2026-04-24 13:34 31.65929 -105.00161 34822 ft 537 kts 99°
2026-04-24 13:34 31.64818 -104.91480 34823 ft 538 kts 99°
2026-04-24 13:35 31.63701 -104.82798 34823 ft 538 kts 99°
2026-04-24 13:35 31.62577 -104.74108 34822 ft 539 kts 99°